Time,TemperatureF,DewpointF,PressureIn,WindDirection,WindDirectionDegrees,WindSpeedMPH,WindSpeedGustMPH,Humidity,HourlyPrecipIn,Conditions,Clouds,dailyrainin,SoftwareType,DateUTC
2013-09-05 00:00:00,61.9,42.5,29.41,East,94,0.0,0.0,49,0.00,,,0.00,VWS V13.01,2013-09-05 04:00:00,
2013-09-05 00:01:00,61.9,42.5,29.41,East,94,0.0,0.0,49,0.00,,,0.00,VWS V13.01,2013-09-05 04:01:00,
2013-09-05 00:02:00,61.9,42.5,29.41,East,94,0.0,0.0,49,0.00,,,0.00,VWS V13.01,2013-09-05 04:02:00,
2013-09-05 00:07:00,61.9,42.5,29.41,East,94,0.0,0.0,49,0.00,,,0.00,VWS V13.01,2013-09-05 04:07:00,
2013-09-05 00:12:00,61.7,42.4,29.41,East,94,0.0,0.0,49,0.00,,,0.00,VWS V13.01,2013-09-05 04:12:00,
2013-09-05 00:17:00,61.7,42.4,29.41,East,94,0.0,0.0,49,0.00,,,0.00,VWS V13.01,2013-09-05 04:17:00,
2013-09-05 00:22:00,61.5,42.2,29.41,East,94,0.0,0.0,49,0.00,,,0.00,VWS V13.01,2013-09-05 04:22:00,
2013-09-05 00:27:00,61.3,42.0,29.41,East,94,0.0,0.0,49,0.00,,,0.00,VWS V13.01,2013-09-05 04:27:00,
2013-09-05 00:32:00,61.3,42.6,29.41,East,94,0.0,0.0,50,0.00,,,0.00,VWS V13.01,2013-09-05 04:32:00,
2013-09-05 00:37:00,61.3,42.6,29.41,East,94,0.0,0.0,50,0.00,,,0.00,VWS V13.01,2013-09-05 04:37:00,
2013-09-05 00:42:00,61.3,42.6,29.41,East,94,0.0,0.0,50,0.00,,,0.00,VWS V13.01,2013-09-05 04:42:00,
2013-09-05 00:47:00,61.2,41.9,29.41,East,94,0.0,0.0,49,0.00,,,0.00,VWS V13.01,2013-09-05 04:47:00,
2013-09-05 00:52:00,61.0,42.2,29.41,East,94,0.0,0.0,50,0.00,,,0.00,VWS V13.01,2013-09-05 04:52:00,
2013-09-05 00:57:00,60.8,42.1,29.41,East,94,0.0,0.0,50,0.00,,,0.00,VWS V13.01,2013-09-05 04:57:00,
2013-09-05 01:02:00,60.6,41.9,29.41,East,94,0.0,0.0,50,0.00,,,0.00,VWS V13.01,2013-09-05 05:02:00,
2013-09-05 01:07:00,60.6,41.9,29.41,East,94,0.0,0.0,50,0.00,,,0.00,VWS V13.01,2013-09-05 05:07:00,
2013-09-05 01:12:00,60.4,42.2,29.41,East,94,0.0,0.0,51,0.00,,,0.00,VWS V13.01,2013-09-05 05:12:00,
2013-09-05 01:17:00,60.4,42.2,29.41,East,94,0.0,0.0,51,0.00,,,0.00,VWS V13.01,2013-09-05 05:17:00,
2013-09-05 01:22:00,60.3,42.1,29.41,East,94,0.0,0.0,51,0.00,,,0.00,VWS V13.01,2013-09-05 05:22:00,
2013-09-05 01:27:00,60.3,42.1,29.41,East,94,0.0,0.0,51,0.00,,,0.00,VWS V13.01,2013-09-05 05:27:00,
2013-09-05 01:32:00,60.1,41.9,29.41,East,94,0.0,0.0,51,0.00,,,0.00,VWS V13.01,2013-09-05 05:32:00,
2013-09-05 01:37:00,60.1,41.9,29.41,East,94,0.0,0.0,51,0.00,,,0.00,VWS V13.01,2013-09-05 05:37:00,
2013-09-05 01:42:00,60.1,41.9,29.41,East,94,0.0,0.0,51,0.00,,,0.00,VWS V13.01,2013-09-05 05:42:00,
2013-09-05 01:47:00,60.1,42.4,29.41,East,94,0.0,0.0,52,0.00,,,0.00,VWS V13.01,2013-09-05 05:47:00,
2013-09-05 01:52:00,60.1,42.4,29.41,East,94,0.0,0.0,52,0.00,,,0.00,VWS V13.01,2013-09-05 05:52:00,
2013-09-05 01:57:00,60.1,42.4,29.41,East,94,0.0,0.0,52,0.00,,,0.00,VWS V13.01,2013-09-05 05:57:00,
2013-09-05 02:02:00,59.9,42.2,29.41,East,94,0.0,0.0,52,0.00,,,0.00,VWS V13.01,2013-09-05 06:02:00,
2013-09-05 02:07:00,59.7,42.1,29.41,East,94,0.0,0.0,52,0.00,,,0.00,VWS V13.01,2013-09-05 06:07:00,
2013-09-05 02:12:00,59.5,41.9,29.41,East,94,0.0,2.7,52,0.00,,,0.00,VWS V13.01,2013-09-05 06:12:00,
2013-09-05 02:17:00,59.5,42.4,29.41,East,94,0.0,0.0,53,0.00,,,0.00,VWS V13.01,2013-09-05 06:17:00,
2013-09-05 02:22:00,59.4,42.2,29.41,East,94,0.0,0.0,53,0.00,,,0.00,VWS V13.01,2013-09-05 06:22:00,
2013-09-05 02:27:00,59.2,42.1,29.41,East,94,0.0,0.0,53,0.00,,,0.00,VWS V13.01,2013-09-05 06:27:00,
2013-09-05 02:32:00,59.2,42.1,29.41,East,94,0.0,0.0,53,0.00,,,0.00,VWS V13.01,2013-09-05 06:32:00,
2013-09-05 02:37:00,59.2,42.1,29.41,East,94,0.0,0.0,53,0.00,,,0.00,VWS V13.01,2013-09-05 06:37:00,
2013-09-05 02:42:00,59.2,42.1,29.41,East,94,0.0,0.0,53,0.00,,,0.00,VWS V13.01,2013-09-05 06:42:00,
2013-09-05 02:47:00,59.0,41.9,29.41,East,94,0.0,0.0,53,0.00,,,0.00,VWS V13.01,2013-09-05 06:47:00,
2013-09-05 02:52:00,59.0,42.4,29.41,East,93,0.0,0.0,54,0.00,,,0.00,VWS V13.01,2013-09-05 06:52:00,
2013-09-05 02:57:00,59.0,42.4,29.38,East,94,0.0,0.0,54,0.00,,,0.00,VWS V13.01,2013-09-05 06:57:00,
2013-09-05 03:02:00,58.8,42.2,29.38,East,94,0.0,0.0,54,0.00,,,0.00,VWS V13.01,2013-09-05 07:02:00,
2013-09-05 03:07:00,58.8,42.2,29.38,East,94,0.0,0.0,54,0.00,,,0.00,VWS V13.01,2013-09-05 07:07:00,
2013-09-05 03:12:00,58.8,42.2,29.38,East,94,0.0,0.0,54,0.00,,,0.00,VWS V13.01,2013-09-05 07:12:00,
2013-09-05 03:17:00,58.5,41.9,29.41,East,94,0.0,0.0,54,0.00,,,0.00,VWS V13.01,2013-09-05 07:17:00,
2013-09-05 03:22:00,58.5,41.9,29.41,East,94,0.0,0.0,54,0.00,,,0.00,VWS V13.01,2013-09-05 07:22:00,
2013-09-05 03:27:00,58.3,42.2,29.41,East,94,0.0,0.0,55,0.00,,,0.00,VWS V13.01,2013-09-05 07:27:00,
2013-09-05 03:32:00,58.1,42.0,29.41,East,94,0.0,0.0,55,0.00,,,0.00,VWS V13.01,2013-09-05 07:32:00,
2013-09-05 03:37:00,58.1,42.0,29.41,East,94,0.0,0.0,55,0.00,,,0.00,VWS V13.01,2013-09-05 07:37:00,
2013-09-05 03:42:00,58.1,42.0,29.41,East,94,0.0,0.0,55,0.00,,,0.00,VWS V13.01,2013-09-05 07:42:00,
2013-09-05 03:47:00,57.9,41.9,29.41,East,94,0.0,0.0,55,0.00,,,0.00,VWS V13.01,2013-09-05 07:47:00,
2013-09-05 03:52:00,58.1,42.5,29.41,East,94,0.0,0.0,56,0.00,,,0.00,VWS V13.01,2013-09-05 07:52:00,
2013-09-05 03:57:00,57.9,41.9,29.41,East,94,0.0,0.0,55,0.00,,,0.00,VWS V13.01,2013-09-05 07:57:00,
2013-09-05 04:03:00,57.9,41.9,29.41,East,94,0.0,0.0,55,0.00,,,0.00,VWS V13.01,2013-09-05 08:03:00,
2013-09-05 04:08:00,57.7,42.2,29.41,East,94,0.0,0.0,56,0.00,,,0.00,VWS V13.01,2013-09-05 08:08:00,
2013-09-05 04:13:00,57.7,42.2,29.41,East,94,0.0,0.0,56,0.00,,,0.00,VWS V13.01,2013-09-05 08:13:00,
2013-09-05 04:18:00,57.7,42.2,29.41,East,94,0.0,0.0,56,0.00,,,0.00,VWS V13.01,2013-09-05 08:18:00,
2013-09-05 04:23:00,57.7,42.2,29.41,East,94,0.0,0.0,56,0.00,,,0.00,VWS V13.01,2013-09-05 08:23:00,
2013-09-05 04:28:00,57.7,42.2,29.41,East,94,0.0,0.0,56,0.00,,,0.00,VWS V13.01,2013-09-05 08:28:00,
2013-09-05 04:33:00,57.6,42.0,29.41,East,94,0.0,0.0,56,0.00,,,0.00,VWS V13.01,2013-09-05 08:33:00,
2013-09-05 04:38:00,57.7,42.6,29.41,East,94,0.0,0.0,57,0.00,,,0.00,VWS V13.01,2013-09-05 08:38:00,
2013-09-05 04:43:00,57.7,42.6,29.41,East,94,0.0,0.0,57,0.00,,,0.00,VWS V13.01,2013-09-05 08:43:00,
2013-09-05 04:48:00,57.7,42.6,29.41,East,94,0.0,0.0,57,0.00,,,0.00,VWS V13.01,2013-09-05 08:48:00,
2013-09-05 04:53:00,57.6,42.0,29.41,East,94,0.0,0.0,56,0.00,,,0.00,VWS V13.01,2013-09-05 08:53:00,
2013-09-05 04:58:00,57.6,42.5,29.41,East,94,0.0,0.0,57,0.00,,,0.00,VWS V13.01,2013-09-05 08:58:00,
2013-09-05 05:03:00,57.7,42.6,29.41,East,94,0.0,0.0,57,0.00,,,0.00,VWS V13.01,2013-09-05 09:03:00,
2013-09-05 05:08:00,57.7,42.6,29.41,East,94,0.0,0.0,57,0.00,,,0.00,VWS V13.01,2013-09-05 09:08:00,
2013-09-05 05:13:00,57.9,42.8,29.41,East,94,0.0,0.0,57,0.00,,,0.00,VWS V13.01,2013-09-05 09:13:00,
2013-09-05 05:18:00,57.9,43.2,29.41,East,94,0.0,0.0,58,0.00,,,0.00,VWS V13.01,2013-09-05 09:18:00,
2013-09-05 05:23:00,58.1,43.4,29.41,East,94,0.0,0.0,58,0.00,,,0.00,VWS V13.01,2013-09-05 09:23:00,
2013-09-05 05:28:00,58.1,43.4,29.41,East,94,0.0,0.0,58,0.00,,,0.00,VWS V13.01,2013-09-05 09:28:00,
2013-09-05 05:33:00,58.1,43.4,29.41,East,94,0.0,0.0,58,0.00,,,0.00,VWS V13.01,2013-09-05 09:33:00,
2013-09-05 05:38:00,58.1,43.4,29.41,East,94,0.0,0.0,58,0.00,,,0.00,VWS V13.01,2013-09-05 09:38:00,
2013-09-05 05:43:00,58.1,43.4,29.41,East,94,0.0,0.0,58,0.00,,,0.00,VWS V13.01,2013-09-05 09:43:00,
2013-09-05 05:48:00,58.1,43.4,29.41,East,94,0.0,0.0,58,0.00,,,0.00,VWS V13.01,2013-09-05 09:48:00,
2013-09-05 05:53:00,58.1,43.4,29.41,East,94,0.0,0.0,58,0.00,,,0.00,VWS V13.01,2013-09-05 09:53:00,
2013-09-05 05:58:00,58.1,43.4,29.41,East,94,0.0,0.0,58,0.00,,,0.00,VWS V13.01,2013-09-05 09:58:00,
2013-09-05 06:03:00,58.1,43.4,29.41,East,94,0.0,0.0,58,0.00,,,0.00,VWS V13.01,2013-09-05 10:03:00,
2013-09-05 06:08:00,58.1,43.9,29.41,East,94,0.0,0.0,59,0.00,,,0.00,VWS V13.01,2013-09-05 10:08:00,
2013-09-05 06:13:00,58.3,44.0,29.41,East,94,0.0,2.7,59,0.00,,,0.00,VWS V13.01,2013-09-05 10:13:00,
2013-09-05 06:18:00,58.3,44.0,29.41,East,94,0.0,0.0,59,0.00,,,0.00,VWS V13.01,2013-09-05 10:18:00,
2013-09-05 06:23:00,58.3,44.5,29.41,East,94,0.0,0.0,60,0.00,,,0.00,VWS V13.01,2013-09-05 10:23:00,
2013-09-05 06:28:00,58.3,44.5,29.44,East,94,0.0,0.0,60,0.00,,,0.00,VWS V13.01,2013-09-05 10:28:00,
2013-09-05 06:33:00,58.1,44.3,29.44,East,94,0.0,2.2,60,0.00,,,0.00,VWS V13.01,2013-09-05 10:33:00,
2013-09-05 06:38:00,58.1,44.3,29.44,East,94,0.0,0.0,60,0.00,,,0.00,VWS V13.01,2013-09-05 10:38:00,
2013-09-05 06:43:00,57.9,44.1,29.44,East,94,0.0,0.0,60,0.00,,,0.00,VWS V13.01,2013-09-05 10:43:00,
2013-09-05 06:48:00,57.9,44.1,29.44,East,94,0.0,0.0,60,0.00,,,0.00,VWS V13.01,2013-09-05 10:48:00,
2013-09-05 06:53:00,57.9,44.1,29.44,East,94,0.0,0.0,60,0.00,,,0.00,VWS V13.01,2013-09-05 10:53:00,
2013-09-05 06:58:00,57.9,44.6,29.44,East,94,0.0,0.0,61,0.00,,,0.00,VWS V13.01,2013-09-05 10:58:00,
2013-09-05 07:03:00,57.9,44.6,29.44,East,94,0.0,0.0,61,0.00,,,0.00,VWS V13.01,2013-09-05 11:03:00,
2013-09-05 07:08:00,57.9,44.6,29.44,East,94,0.0,0.0,61,0.00,,,0.00,VWS V13.01,2013-09-05 11:08:00,
2013-09-05 07:13:00,57.7,44.4,29.44,East,94,0.0,0.0,61,0.00,,,0.00,VWS V13.01,2013-09-05 11:13:00,
2013-09-05 07:18:00,57.7,44.4,29.44,East,94,0.0,0.0,61,0.00,,,0.00,VWS V13.01,2013-09-05 11:18:00,
2013-09-05 07:23:00,57.7,44.4,29.44,East,94,0.0,0.0,61,0.00,,,0.00,VWS V13.01,2013-09-05 11:23:00,
2013-09-05 07:28:00,57.7,44.4,29.44,East,94,0.0,0.0,61,0.00,,,0.00,VWS V13.01,2013-09-05 11:28:00,
2013-09-05 07:33:00,57.7,44.4,29.44,East,94,0.0,0.0,61,0.00,,,0.00,VWS V13.01,2013-09-05 11:33:00,
2013-09-05 07:38:00,57.7,44.4,29.44,East,94,0.0,0.0,61,0.00,,,0.00,VWS V13.01,2013-09-05 11:38:00,
2013-09-05 07:43:00,57.6,44.2,29.44,East,94,0.0,0.0,61,0.00,,,0.00,VWS V13.01,2013-09-05 11:43:00,
2013-09-05 07:48:00,57.7,44.4,29.44,East,94,0.0,0.0,61,0.00,,,0.00,VWS V13.01,2013-09-05 11:48:00,
2013-09-05 07:53:00,57.7,44.4,29.44,East,94,0.0,0.0,61,0.00,,,0.00,VWS V13.01,2013-09-05 11:53:00,
2013-09-05 07:58:00,57.9,45.0,29.44,East,94,0.0,0.0,62,0.00,,,0.00,VWS V13.01,2013-09-05 11:58:00,
2013-09-05 08:03:00,58.1,45.2,29.44,East,94,0.0,0.0,62,0.00,,,0.00,VWS V13.01,2013-09-05 12:03:00,
2013-09-05 08:08:00,58.5,45.5,29.44,East,94,0.0,0.0,62,0.00,,,0.00,VWS V13.01,2013-09-05 12:08:00,
2013-09-05 08:13:00,58.3,45.3,29.44,East,94,0.0,0.0,62,0.00,,,0.00,VWS V13.01,2013-09-05 12:13:00,
2013-09-05 08:18:00,58.3,45.3,29.44,East,94,0.0,0.0,62,0.00,,,0.00,VWS V13.01,2013-09-05 12:18:00,
2013-09-05 08:23:00,58.5,45.5,29.44,East,94,0.0,0.0,62,0.00,,,0.00,VWS V13.01,2013-09-05 12:23:00,
2013-09-05 08:28:00,58.6,45.7,29.44,East,94,0.0,0.0,62,0.00,,,0.00,VWS V13.01,2013-09-05 12:28:00,
2013-09-05 08:33:00,58.8,45.8,29.44,East,94,0.0,0.0,62,0.00,,,0.00,VWS V13.01,2013-09-05 12:33:00,
2013-09-05 08:38:00,59.0,46.0,29.44,East,83,0.0,0.0,62,0.00,,,0.00,VWS V13.01,2013-09-05 12:38:00,
2013-09-05 08:43:00,59.2,46.2,29.44,East,83,0.0,0.0,62,0.00,,,0.00,VWS V13.01,2013-09-05 12:43:00,
2013-09-05 08:48:00,59.4,46.8,29.44,East,83,0.0,0.0,63,0.00,,,0.00,VWS V13.01,2013-09-05 12:48:00,
2013-09-05 08:53:00,59.4,46.8,29.44,East,83,0.0,0.0,63,0.00,,,0.00,VWS V13.01,2013-09-05 12:53:00,
2013-09-05 08:58:00,59.7,47.1,29.47,East,83,0.0,0.0,63,0.00,,,0.00,VWS V13.01,2013-09-05 12:58:00,
2013-09-05 09:03:00,59.9,47.3,29.47,East,83,0.0,0.0,63,0.00,,,0.00,VWS V13.01,2013-09-05 13:03:00,
2013-09-05 09:08:00,60.1,47.5,29.47,East,83,0.0,0.0,63,0.00,,,0.00,VWS V13.01,2013-09-05 13:08:00,
2013-09-05 09:13:00,60.1,47.5,29.47,NW,318,0.0,0.0,63,0.00,,,0.00,VWS V13.01,2013-09-05 13:13:00,
2013-09-05 09:18:00,60.1,47.5,29.47,North,0,0.0,2.7,63,0.00,,,0.00,VWS V13.01,2013-09-05 13:18:00,
2013-09-05 09:23:00,60.3,47.6,29.47,North,0,0.0,0.0,63,0.00,,,0.00,VWS V13.01,2013-09-05 13:23:00,
2013-09-05 09:28:00,60.4,47.8,29.47,SSW,193,0.0,0.0,63,0.00,,,0.00,VWS V13.01,2013-09-05 13:28:00,
2013-09-05 09:33:00,60.6,48.0,29.47,SSW,206,0.0,3.1,63,0.00,,,0.00,VWS V13.01,2013-09-05 13:33:00,
2013-09-05 09:38:00,60.8,48.1,29.47,SW,218,0.0,2.7,63,0.00,,,0.00,VWS V13.01,2013-09-05 13:38:00,
2013-09-05 09:43:00,61.2,48.5,29.47,SW,218,0.0,0.0,63,0.00,,,0.00,VWS V13.01,2013-09-05 13:43:00,
2013-09-05 09:48:00,61.5,48.8,29.47,SW,218,0.0,0.0,63,0.00,,,0.00,VWS V13.01,2013-09-05 13:48:00,
2013-09-05 09:53:00,62.1,49.3,29.47,SSW,207,2.2,2.7,63,0.00,,,0.00,VWS V13.01,2013-09-05 13:53:00,
2013-09-05 09:58:00,62.4,49.7,29.47,SSW,205,0.0,0.0,63,0.00,,,0.00,VWS V13.01,2013-09-05 13:58:00,
2013-09-05 10:03:00,63.0,50.2,29.47,SSW,212,0.0,2.7,63,0.00,,,0.00,VWS V13.01,2013-09-05 14:03:00,
2013-09-05 10:08:00,63.5,51.1,29.47,SSW,212,0.0,0.0,64,0.00,,,0.00,VWS V13.01,2013-09-05 14:08:00,
2013-09-05 10:14:00,64.2,51.8,29.47,SW,218,0.0,2.7,64,0.00,,,0.00,VWS V13.01,2013-09-05 14:14:00,
2013-09-05 10:19:00,64.6,51.7,29.47,South,181,0.0,2.2,63,0.00,,,0.00,VWS V13.01,2013-09-05 14:19:00,
2013-09-05 10:23:00,65.3,52.8,29.47,SW,219,0.0,3.6,64,0.00,,,0.00,VWS V13.01,2013-09-05 14:23:00,
2013-09-05 10:29:00,65.8,53.3,29.47,WSW,242,0.0,3.1,64,0.00,,,0.00,VWS V13.01,2013-09-05 14:29:00,
2013-09-05 10:34:00,66.4,53.4,29.47,West,261,0.0,0.0,63,0.00,,,0.00,VWS V13.01,2013-09-05 14:34:00,
2013-09-05 10:40:00,66.7,53.3,29.47,SSW,210,0.0,3.1,62,0.00,,,0.00,VWS V13.01,2013-09-05 14:40:00,
2013-09-05 10:45:00,66.9,46.6,29.47,SW,224,0.0,3.1,48,0.00,,,0.00,VWS V13.01,2013-09-05 14:45:00,
2013-09-05 10:55:00,67.6,41.2,29.47,WNW,283,3.1,4.0,38,0.00,,,0.00,VWS V13.01,2013-09-05 14:55:00,
2013-09-05 11:00:00,68.4,42.5,29.47,NNW,343,2.7,3.1,39,0.00,,,0.00,VWS V13.01,2013-09-05 15:00:00,
2013-09-05 11:05:00,68.9,42.3,29.47,WSW,239,0.0,2.7,38,0.00,,,0.00,VWS V13.01,2013-09-05 15:05:00,
2013-09-05 11:15:00,70.0,38.8,29.44,NW,304,0.0,4.0,32,0.00,,,0.00,VWS V13.01,2013-09-05 15:15:00,
2013-09-05 11:25:00,70.9,39.6,29.44,WSW,237,4.0,4.0,32,0.00,,,0.00,VWS V13.01,2013-09-05 15:25:00,
2013-09-05 11:35:00,71.4,33.8,29.47,West,260,3.1,5.4,25,0.00,,,0.00,VWS V13.01,2013-09-05 15:35:00,
2013-09-05 11:40:00,71.8,34.1,29.47,West,262,2.2,5.8,25,0.00,,,0.00,VWS V13.01,2013-09-05 15:40:00,
2013-09-05 11:45:00,72.3,34.6,29.47,SW,223,3.6,5.4,25,0.00,,,0.00,VWS V13.01,2013-09-05 15:45:00,
2013-09-05 11:50:00,72.9,34.0,29.47,WSW,244,3.1,6.3,24,0.00,,,0.00,VWS V13.01,2013-09-05 15:50:00,
2013-09-05 11:55:00,73.0,33.1,29.47,SW,226,2.7,6.3,23,0.00,,,0.00,VWS V13.01,2013-09-05 15:55:00,
2013-09-05 12:00:00,73.4,32.3,29.47,SW,219,3.6,5.8,22,0.00,,,0.00,VWS V13.01,2013-09-05 16:00:00,
2013-09-05 12:05:00,73.9,32.7,29.47,SW,234,3.1,4.0,22,0.00,,,0.00,VWS V13.01,2013-09-05 16:05:00,
2013-09-05 12:10:00,74.3,31.9,29.47,SW,217,4.0,4.0,21,0.00,,,0.00,VWS V13.01,2013-09-05 16:10:00,
2013-09-05 12:15:00,74.8,32.3,29.47,SW,229,4.9,7.6,21,0.00,,,0.00,VWS V13.01,2013-09-05 16:15:00,
2013-09-05 12:20:00,75.0,32.5,29.47,SW,232,4.0,7.2,21,0.00,,,0.00,VWS V13.01,2013-09-05 16:20:00,
2013-09-05 12:25:00,75.2,32.6,29.47,WNW,291,2.7,8.3,21,0.00,,,0.00,VWS V13.01,2013-09-05 16:25:00,
2013-09-05 12:30:00,75.7,31.9,29.47,West,263,2.7,6.3,20,0.00,,,0.00,VWS V13.01,2013-09-05 16:30:00,
2013-09-05 12:35:00,76.1,32.2,29.47,SW,227,4.9,6.3,20,0.00,,,0.00,VWS V13.01,2013-09-05 16:35:00,
2013-09-05 12:40:00,76.1,25.1,29.47,SW,236,3.1,8.1,15,0.00,,,0.00,VWS V13.01,2013-09-05 16:40:00,
2013-09-05 12:45:00,76.5,25.4,29.44,WSW,258,2.2,6.3,15,0.00,,,0.00,VWS V13.01,2013-09-05 16:45:00,
2013-09-05 12:50:00,77.2,26.0,29.44,North,357,2.7,4.0,15,0.00,,,0.00,VWS V13.01,2013-09-05 16:50:00,
2013-09-05 12:55:00,77.5,26.3,29.44,SW,234,4.0,7.6,15,0.00,,,0.00,VWS V13.01,2013-09-05 16:55:00,
2013-09-05 13:00:00,77.9,23.1,29.44,SSW,213,5.8,8.1,13,0.00,,,0.00,VWS V13.01,2013-09-05 17:00:00,
2013-09-05 13:05:00,77.7,26.4,29.44,SW,232,3.6,6.3,15,0.00,,,0.00,VWS V13.01,2013-09-05 17:05:00,
2013-09-05 13:10:00,78.4,23.6,29.44,South,180,2.7,5.8,13,0.00,,,0.00,VWS V13.01,2013-09-05 17:10:00,
2013-09-05 13:15:00,79.2,22.2,29.44,SSE,155,2.2,6.3,12,0.00,,,0.00,VWS V13.01,2013-09-05 17:15:00,
2013-09-05 13:20:00,79.5,22.5,29.44,SSW,193,5.8,6.3,12,0.00,,,0.00,VWS V13.01,2013-09-05 17:20:00,
2013-09-05 13:25:00,79.3,22.4,29.44,South,173,3.1,7.6,12,0.00,,,0.00,VWS V13.01,2013-09-05 17:25:00,
2013-09-05 13:30:00,79.7,22.6,29.44,South,180,3.6,6.3,12,0.00,,,0.00,VWS V13.01,2013-09-05 17:30:00,
2013-09-05 13:35:00,79.3,22.4,29.44,WSW,239,4.0,7.6,12,0.00,,,0.00,VWS V13.01,2013-09-05 17:35:00,
2013-09-05 13:40:00,79.5,22.5,29.44,South,169,4.0,4.0,12,0.00,,,0.00,VWS V13.01,2013-09-05 17:40:00,
2013-09-05 13:45:00,79.9,22.8,29.44,South,174,5.4,6.3,12,0.00,,,0.00,VWS V13.01,2013-09-05 17:45:00,
2013-09-05 13:50:00,79.5,22.5,29.44,SSW,206,3.6,8.3,12,0.00,,,0.00,VWS V13.01,2013-09-05 17:50:00,
2013-09-05 13:55:00,79.9,22.8,29.44,WSW,238,3.6,7.2,12,0.00,,,0.00,VWS V13.01,2013-09-05 17:55:00,
2013-09-05 14:00:00,80.2,23.1,29.44,West,274,2.2,4.9,12,0.00,,,0.00,VWS V13.01,2013-09-05 18:00:00,
2013-09-05 14:05:00,80.4,23.2,29.44,South,183,4.0,4.0,12,0.00,,,0.00,VWS V13.01,2013-09-05 18:05:00,
2013-09-05 14:10:00,80.8,23.5,29.44,South,183,3.6,6.3,12,0.00,,,0.00,VWS V13.01,2013-09-05 18:10:00,
2013-09-05 14:15:00,81.0,16.9,29.44,SE,137,2.2,5.8,9,0.00,,,0.00,VWS V13.01,2013-09-05 18:15:00,
2013-09-05 14:20:00,81.9,17.6,29.44,South,175,2.7,3.6,9,0.00,,,0.00,VWS V13.01,2013-09-05 18:20:00,
2013-09-05 14:25:00,82.8,18.2,29.44,East,92,2.2,6.3,9,0.00,,,0.00,VWS V13.01,2013-09-05 18:25:00,
2013-09-05 14:30:00,82.9,18.4,29.44,WNW,292,3.6,4.0,9,0.00,,,0.00,VWS V13.01,2013-09-05 18:30:00,
2013-09-05 14:35:00,82.8,18.2,29.44,East,96,2.7,5.8,9,0.00,,,0.00,VWS V13.01,2013-09-05 18:35:00,
2013-09-05 14:40:00,82.4,18.0,29.44,NNW,337,0.0,5.4,9,0.00,,,0.00,VWS V13.01,2013-09-05 18:40:00,
2013-09-05 14:45:00,82.4,18.0,29.44,NNW,342,0.0,4.0,9,0.00,,,0.00,VWS V13.01,2013-09-05 18:45:00,
2013-09-05 14:50:00,83.1,18.5,29.44,SW,220,6.3,6.3,9,0.00,,,0.00,VWS V13.01,2013-09-05 18:50:00,
2013-09-05 14:55:00,83.5,18.8,29.44,ESE,112,4.0,5.4,9,0.00,,,0.00,VWS V13.01,2013-09-05 18:55:00,
2013-09-05 15:00:00,83.3,18.6,29.44,North,357,2.7,5.8,9,0.00,,,0.00,VWS V13.01,2013-09-05 19:00:00,
2013-09-05 15:05:00,82.8,18.2,29.44,North,353,5.4,8.3,9,0.00,,,0.00,VWS V13.01,2013-09-05 19:05:00,
2013-09-05 15:10:00,82.0,17.7,29.44,NW,314,5.4,6.3,9,0.00,,,0.00,VWS V13.01,2013-09-05 19:10:00,
2013-09-05 15:15:00,81.9,17.6,29.41,North,357,6.3,7.6,9,0.00,,,0.00,VWS V13.01,2013-09-05 19:15:00,
2013-09-05 15:20:00,81.9,17.6,29.41,North,0,4.5,6.3,9,0.00,,,0.00,VWS V13.01,2013-09-05 19:20:00,
2013-09-05 15:25:00,82.2,17.8,29.41,NNW,330,5.4,6.3,9,0.00,,,0.00,VWS V13.01,2013-09-05 19:25:00,
2013-09-05 15:30:00,81.9,17.6,29.41,North,5,2.7,6.3,9,0.00,,,0.00,VWS V13.01,2013-09-05 19:30:00,
2013-09-05 15:35:00,82.6,18.1,29.41,NW,310,5.8,7.2,9,0.00,,,0.00,VWS V13.01,2013-09-05 19:35:00,
2013-09-05 15:40:00,82.6,18.1,29.41,WNW,282,0.0,6.3,9,0.00,,,0.00,VWS V13.01,2013-09-05 19:40:00,
2013-09-05 15:45:00,83.1,18.5,29.41,SSE,159,2.7,4.0,9,0.00,,,0.00,VWS V13.01,2013-09-05 19:45:00,
2013-09-05 15:50:00,83.8,19.0,29.41,SE,133,2.2,5.4,9,0.00,,,0.00,VWS V13.01,2013-09-05 19:50:00,
2013-09-05 15:55:00,83.8,19.0,29.41,North,0,4.5,6.3,9,0.00,,,0.00,VWS V13.01,2013-09-05 19:55:00,
2013-09-05 16:00:00,82.9,18.4,29.41,NE,35,0.0,5.8,9,0.00,,,0.00,VWS V13.01,2013-09-05 20:00:00,
2013-09-05 16:05:00,83.3,18.6,29.41,NW,308,3.6,4.0,9,0.00,,,0.00,VWS V13.01,2013-09-05 20:05:00,
2013-09-05 16:10:00,83.3,18.6,29.41,NNW,344,5.8,6.3,9,0.00,,,0.00,VWS V13.01,2013-09-05 20:10:00,
2013-09-05 16:15:00,82.9,18.4,29.41,North,353,5.8,6.7,9,0.00,,,0.00,VWS V13.01,2013-09-05 20:15:00,
2013-09-05 16:20:00,82.8,18.2,29.41,NNW,340,5.8,6.3,9,0.00,,,0.00,VWS V13.01,2013-09-05 20:20:00,
2013-09-05 16:25:00,82.8,18.2,29.41,North,353,0.0,4.0,9,0.00,,,0.00,VWS V13.01,2013-09-05 20:25:00,
2013-09-05 16:30:00,82.9,18.4,29.41,North,4,2.7,8.1,9,0.00,,,0.00,VWS V13.01,2013-09-05 20:30:00,
2013-09-05 16:35:00,82.9,18.4,29.41,NNW,345,0.0,6.3,9,0.00,,,0.00,VWS V13.01,2013-09-05 20:35:00,
2013-09-05 16:40:00,83.3,18.6,29.41,North,353,0.0,5.4,9,0.00,,,0.00,VWS V13.01,2013-09-05 20:40:00,
2013-09-05 16:45:00,83.7,18.9,29.38,North,0,4.0,5.8,9,0.00,,,0.00,VWS V13.01,2013-09-05 20:45:00,
2013-09-05 16:50:00,83.5,18.8,29.38,NNE,31,2.7,5.8,9,0.00,,,0.00,VWS V13.01,2013-09-05 20:50:00,
2013-09-05 16:55:00,83.8,19.0,29.38,SE,143,2.7,2.7,9,0.00,,,0.00,VWS V13.01,2013-09-05 20:55:00,
2013-09-05 17:00:00,84.6,16.9,29.41,North,357,3.6,5.8,8,0.00,,,0.00,VWS V13.01,2013-09-05 21:00:00,
2013-09-05 17:05:00,83.7,18.9,29.41,West,281,3.1,7.6,9,0.00,,,0.00,VWS V13.01,2013-09-05 21:05:00,
2013-09-05 17:10:00,83.5,18.8,29.41,NW,321,2.7,5.4,9,0.00,,,0.00,VWS V13.01,2013-09-05 21:10:00,
2013-09-05 17:15:00,82.9,18.4,29.41,North,357,3.6,7.6,9,0.00,,,0.00,VWS V13.01,2013-09-05 21:15:00,
2013-09-05 17:20:00,83.1,18.5,29.41,North,350,2.7,3.6,9,0.00,,,0.00,VWS V13.01,2013-09-05 21:20:00,
2013-09-05 17:25:00,83.3,18.6,29.41,NNW,332,3.1,6.3,9,0.00,,,0.00,VWS V13.01,2013-09-05 21:25:00,
2013-09-05 17:30:00,83.1,18.5,29.41,NNW,330,0.0,5.4,9,0.00,,,0.00,VWS V13.01,2013-09-05 21:30:00,
2013-09-05 17:35:00,83.3,18.6,29.41,NNW,336,2.7,5.4,9,0.00,,,0.00,VWS V13.01,2013-09-05 21:35:00,
2013-09-05 17:40:00,83.3,18.6,29.41,NNW,329,3.6,6.3,9,0.00,,,0.00,VWS V13.01,2013-09-05 21:40:00,
2013-09-05 17:45:00,83.5,18.8,29.41,SW,225,2.7,4.0,9,0.00,,,0.00,VWS V13.01,2013-09-05 21:45:00,
2013-09-05 17:50:00,83.7,18.9,29.41,ESE,115,0.0,4.0,9,0.00,,,0.00,VWS V13.01,2013-09-05 21:50:00,
2013-09-05 17:55:00,84.4,16.7,29.41,NW,318,3.1,3.1,8,0.00,,,0.00,VWS V13.01,2013-09-05 21:55:00,
2013-09-05 18:00:00,84.4,16.7,29.41,NE,46,0.0,5.4,8,0.00,,,0.00,VWS V13.01,2013-09-05 22:00:00,
2013-09-05 18:05:00,83.5,18.8,29.41,North,353,0.0,3.6,9,0.00,,,0.00,VWS V13.01,2013-09-05 22:05:00,
2013-09-05 18:10:00,82.9,18.4,29.41,ENE,71,2.7,3.6,9,0.00,,,0.00,VWS V13.01,2013-09-05 22:10:00,
2013-09-05 18:15:00,82.4,18.0,29.41,North,353,0.0,3.1,9,0.00,,,0.00,VWS V13.01,2013-09-05 22:15:00,
2013-09-05 18:20:00,82.6,18.1,29.41,East,89,0.0,3.1,9,0.00,,,0.00,VWS V13.01,2013-09-05 22:20:00,
2013-09-05 18:25:00,82.8,18.2,29.41,North,0,2.2,3.1,9,0.00,,,0.00,VWS V13.01,2013-09-05 22:25:00,
2013-09-05 18:30:00,82.9,18.4,29.38,NNE,18,0.0,3.1,9,0.00,,,0.00,VWS V13.01,2013-09-05 22:30:00,
2013-09-05 18:35:00,82.9,18.4,29.38,NNE,24,0.0,0.0,9,0.00,,,0.00,VWS V13.01,2013-09-05 22:35:00,
2013-09-05 18:40:00,82.9,18.4,29.38,NNW,342,0.0,0.0,9,0.00,,,0.00,VWS V13.01,2013-09-05 22:40:00,
2013-09-05 18:45:00,82.9,18.4,29.41,NNW,341,0.0,0.0,9,0.00,,,0.00,VWS V13.01,2013-09-05 22:45:00,
2013-09-05 18:50:00,82.9,18.4,29.41,NNW,331,2.2,2.7,9,0.00,,,0.00,VWS V13.01,2013-09-05 22:50:00,
2013-09-05 18:56:00,82.9,18.4,29.41,WNW,301,0.0,2.7,9,0.00,,,0.00,VWS V13.01,2013-09-05 22:56:00,
2013-09-05 19:01:00,82.8,18.2,29.41,NNW,327,0.0,3.6,9,0.00,,,0.00,VWS V13.01,2013-09-05 23:01:00,
2013-09-05 19:06:00,82.6,18.1,29.41,WNW,285,0.0,0.0,9,0.00,,,0.00,VWS V13.01,2013-09-05 23:06:00,
2013-09-05 19:11:00,82.8,18.2,29.41,WNW,285,0.0,0.0,9,0.00,,,0.00,VWS V13.01,2013-09-05 23:11:00,
2013-09-05 19:16:00,82.6,18.1,29.41,WNW,285,0.0,0.0,9,0.00,,,0.00,VWS V13.01,2013-09-05 23:16:00,
2013-09-05 19:21:00,82.2,17.8,29.41,WNW,285,0.0,0.0,9,0.00,,,0.00,VWS V13.01,2013-09-05 23:21:00,
2013-09-05 19:26:00,81.7,17.4,29.41,WNW,285,0.0,0.0,9,0.00,,,0.00,VWS V13.01,2013-09-05 23:26:00,
2013-09-05 19:31:00,81.0,16.9,29.38,WNW,285,0.0,0.0,9,0.00,,,0.00,VWS V13.01,2013-09-05 23:31:00,
2013-09-05 19:36:00,80.2,18.8,29.38,WNW,285,0.0,0.0,10,0.00,,,0.00,VWS V13.01,2013-09-05 23:36:00,
2013-09-05 19:41:00,79.5,18.2,29.38,WNW,285,0.0,0.0,10,0.00,,,0.00,VWS V13.01,2013-09-05 23:41:00,
2013-09-05 19:46:00,78.8,22.0,29.41,WNW,285,0.0,0.0,12,0.00,,,0.00,VWS V13.01,2013-09-05 23:46:00,
2013-09-05 19:51:00,77.5,22.9,29.41,WNW,285,0.0,0.0,13,0.00,,,0.00,VWS V13.01,2013-09-05 23:51:00,
2013-09-05 19:56:00,76.3,21.9,29.41,WNW,285,0.0,0.0,13,0.00,,,0.00,VWS V13.01,2013-09-05 23:56:00,
2013-09-05 20:01:00,75.4,21.2,29.41,WNW,285,0.0,0.0,13,0.00,,,0.00,VWS V13.01,2013-09-06 00:01:00,
2013-09-05 20:06:00,74.5,25.4,29.41,WNW,285,0.0,0.0,16,0.00,,,0.00,VWS V13.01,2013-09-06 00:06:00,
2013-09-05 20:11:00,73.8,27.6,29.41,WNW,285,0.0,0.0,18,0.00,,,0.00,VWS V13.01,2013-09-06 00:11:00,
2013-09-05 20:16:00,73.2,28.5,29.41,WNW,285,0.0,0.0,19,0.00,,,0.00,VWS V13.01,2013-09-06 00:16:00,
2013-09-05 20:21:00,72.9,30.7,29.41,WNW,285,0.0,0.0,21,0.00,,,0.00,VWS V13.01,2013-09-06 00:21:00,
2013-09-05 20:26:00,72.5,30.4,29.41,WNW,285,0.0,0.0,21,0.00,,,0.00,VWS V13.01,2013-09-06 00:26:00,
2013-09-05 20:31:00,72.0,31.1,29.38,WNW,285,0.0,0.0,22,0.00,,,0.00,VWS V13.01,2013-09-06 00:31:00,
2013-09-05 20:36:00,71.8,30.9,29.38,WNW,285,0.0,0.0,22,0.00,,,0.00,VWS V13.01,2013-09-06 00:36:00,
2013-09-05 20:41:00,71.4,32.8,29.38,WNW,285,0.0,0.0,24,0.00,,,0.00,VWS V13.01,2013-09-06 00:41:00,
2013-09-05 20:46:00,71.1,33.5,29.41,WNW,285,0.0,0.0,25,0.00,,,0.00,VWS V13.01,2013-09-06 00:46:00,
2013-09-05 20:51:00,70.9,34.3,29.41,WNW,285,0.0,0.0,26,0.00,,,0.00,VWS V13.01,2013-09-06 00:51:00,
2013-09-05 20:56:00,70.9,34.3,29.41,WNW,285,0.0,0.0,26,0.00,,,0.00,VWS V13.01,2013-09-06 00:56:00,
2013-09-05 21:01:00,70.7,35.1,29.41,WNW,285,0.0,0.0,27,0.00,,,0.00,VWS V13.01,2013-09-06 01:01:00,
2013-09-05 21:06:00,70.7,36.0,29.41,WNW,285,0.0,0.0,28,0.00,,,0.00,VWS V13.01,2013-09-06 01:06:00,
2013-09-05 21:10:00,70.5,36.8,29.41,WNW,285,0.0,0.0,29,0.00,,,0.00,VWS V13.01,2013-09-06 01:10:00,
2013-09-05 21:15:00,70.3,39.1,29.41,WNW,285,0.0,0.0,32,0.00,,,0.00,VWS V13.01,2013-09-06 01:15:00,
2013-09-05 21:20:00,70.2,39.0,29.41,WNW,285,0.0,0.0,32,0.00,,,0.00,VWS V13.01,2013-09-06 01:20:00,
2013-09-05 21:25:00,70.0,38.8,29.41,WNW,285,0.0,0.0,32,0.00,,,0.00,VWS V13.01,2013-09-06 01:25:00,
2013-09-05 21:30:00,69.6,39.3,29.41,WNW,285,0.0,0.0,33,0.00,,,0.00,VWS V13.01,2013-09-06 01:30:00,
2013-09-05 21:35:00,69.4,39.1,29.41,WNW,285,0.0,0.0,33,0.00,,,0.00,VWS V13.01,2013-09-06 01:35:00,
2013-09-05 21:41:00,69.3,39.7,29.41,WNW,285,0.0,0.0,34,0.00,,,0.00,VWS V13.01,2013-09-06 01:41:00,
2013-09-05 21:45:00,69.1,39.6,29.41,WNW,285,0.0,0.0,34,0.00,,,0.00,VWS V13.01,2013-09-06 01:45:00,
2013-09-05 21:51:00,68.9,39.4,29.41,WNW,285,0.0,0.0,34,0.00,,,0.00,VWS V13.01,2013-09-06 01:51:00,
2013-09-05 21:55:00,68.7,39.2,29.41,WNW,285,0.0,0.0,34,0.00,,,0.00,VWS V13.01,2013-09-06 01:55:00,
2013-09-05 22:01:00,68.5,39.1,29.41,WNW,285,0.0,0.0,34,0.00,,,0.00,VWS V13.01,2013-09-06 02:01:00,
2013-09-05 22:05:00,68.5,39.8,29.41,WNW,285,0.0,0.0,35,0.00,,,0.00,VWS V13.01,2013-09-06 02:05:00,
2013-09-05 22:11:00,68.4,40.4,29.41,WNW,285,0.0,0.0,36,0.00,,,0.00,VWS V13.01,2013-09-06 02:11:00,
2013-09-05 22:15:00,68.2,40.9,29.44,WNW,285,0.0,0.0,37,0.00,,,0.00,VWS V13.01,2013-09-06 02:15:00,
2013-09-05 22:21:00,68.0,41.5,29.44,WNW,285,0.0,0.0,38,0.00,,,0.00,VWS V13.01,2013-09-06 02:21:00,
2013-09-05 22:25:00,67.8,41.3,29.44,WNW,285,0.0,0.0,38,0.00,,,0.00,VWS V13.01,2013-09-06 02:25:00,
2013-09-05 22:31:00,67.6,41.8,29.44,WNW,285,0.0,0.0,39,0.00,,,0.00,VWS V13.01,2013-09-06 02:31:00,
2013-09-05 22:35:00,67.5,41.7,29.44,WNW,285,0.0,0.0,39,0.00,,,0.00,VWS V13.01,2013-09-06 02:35:00,
2013-09-05 22:41:00,67.3,42.2,29.44,WNW,285,0.0,0.0,40,0.00,,,0.00,VWS V13.01,2013-09-06 02:41:00,
2013-09-05 22:45:00,67.1,42.0,29.44,WNW,285,0.0,0.0,40,0.00,,,0.00,VWS V13.01,2013-09-06 02:45:00,
2013-09-05 22:51:00,67.1,42.6,29.44,WNW,285,0.0,0.0,41,0.00,,,0.00,VWS V13.01,2013-09-06 02:51:00,
2013-09-05 22:56:00,66.9,43.1,29.44,NW,312,0.0,0.0,42,0.00,,,0.00,VWS V13.01,2013-09-06 02:56:00,
2013-09-05 23:01:00,66.7,43.5,29.44,NW,312,0.0,0.0,43,0.00,,,0.00,VWS V13.01,2013-09-06 03:01:00,
2013-09-05 23:06:00,66.7,43.5,29.44,NW,312,0.0,0.0,43,0.00,,,0.00,VWS V13.01,2013-09-06 03:06:00,
2013-09-05 23:11:00,66.6,44.0,29.44,NW,311,0.0,0.0,44,0.00,,,0.00,VWS V13.01,2013-09-06 03:11:00,
2013-09-05 23:16:00,66.6,44.0,29.44,NW,312,0.0,0.0,44,0.00,,,0.00,VWS V13.01,2013-09-06 03:16:00,
2013-09-05 23:21:00,66.4,44.4,29.44,NW,311,0.0,0.0,45,0.00,,,0.00,VWS V13.01,2013-09-06 03:21:00,
2013-09-05 23:26:00,66.2,44.2,29.44,NW,311,0.0,0.0,45,0.00,,,0.00,VWS V13.01,2013-09-06 03:26:00,
2013-09-05 23:31:00,66.2,44.2,29.44,NW,312,0.0,0.0,45,0.00,,,0.00,VWS V13.01,2013-09-06 03:31:00,
2013-09-05 23:36:00,66.2,44.8,29.44,NW,312,0.0,0.0,46,0.00,,,0.00,VWS V13.01,2013-09-06 03:36:00,
2013-09-05 23:41:00,66.0,44.7,29.44,NW,312,0.0,0.0,46,0.00,,,0.00,VWS V13.01,2013-09-06 03:41:00,
2013-09-05 23:46:00,65.8,44.5,29.44,NW,311,0.0,0.0,46,0.00,,,0.00,VWS V13.01,2013-09-06 03:46:00,
2013-09-05 23:51:00,65.8,45.1,29.44,NW,312,0.0,0.0,47,0.00,,,0.00,VWS V13.01,2013-09-06 03:51:00,
2013-09-05 23:56:00,65.7,44.9,29.44,NW,311,0.0,0.0,47,0.00,,,0.00,VWS V13.01,2013-09-06 03:56:00,